STARLINK-3088 (49163 NORAD) Tracking and Keplerian Element Data

This shows tracking and keplerian element data for the satellite.

Feedback or suggestion? Click here.




ElementValue
Catalog49163
NameSTARLINK-3088
Epoch Orbit367
Epoch Day300.58334491
Epoch Year2021
RAAN4.6698
Inclination70.0009
Eccentricity0.0003902
Argument of Perigee293.7143
Mean Anonmoly108.9686
Mean Motion15.69715991
Decay Rate0.00056574
L11 49163U 21082AK 21300.58334491 .00056574 00000-0 47310-3 0 9994
L22 49163 70.0009 4.6698 0003902 293.7143 108.9686 15.69715991 3674

Live tracking and technical data element details for STARLINK-3088 (NORAD 49163). STARLINK-3088 can be tracked NOW for your location showing map with azimuth and elevation plus other details from your city location.

Track the satellite on the map from your city or location and see movement details for azimuth, elevation, latitude, longitude, range, height, and movement on the map or in text.







IsCatalogInMostPopularTable: catalog: 49163, numindb: 11
Update: records affected: 1



GetName: 49163 STARLINK-3088

Hit Count: updated at: Thu, 28 Oct 2021 10:29:21 GMT